Back to catalog

STARLINK-1362

AliveCommunicationsVLEO
NORAD 45538·PAYLOAD·🇺🇸 United States

Launched Apr 22, 2020 from Cape Canaveral Space Force Station

Loading…

Next Passes (next 24 hours)

TLE

FreshSource: CelesTrak SupGP

Epoch: Sep 14, 2026, 20:30 UTC

1 45538C 20025H   26257.85465278  .00028079  00000+0  57151-3 0  2575
2 45538  53.1515 292.2167 0001959  74.9185 253.3267 15.45666758    16

Track STARLINK-1362 in real time with AllMySat

Download on the App Store